Location: Unspecified
(20.0000°S, 0.0000°E)
Time: 00:55:04
(UTC+00:00)

NUDT-PHONESAT - Pass Details

Date: 23 July 2019
Orbit: 489 x 505 km, 97.4° (Epoch: 23 August)

Event Time Altitude Azimuth Distance (km) Brightness Sun altitude
Rises 18:34:05 0° 178° (S) 2,613 ? -12.9°
Reaches altitude 10° 18:36:15 10° 185° (S) 1,719 ? -13.4°
Maximum altitude 18:39:46 43° 257° (WSW) 713 ? -14.2°
Drops below altitude 10° 18:43:14 10° 329° (NNW) 1,689 ? -14.9°
Sets 18:45:21 0° 336° (NNW) 2,561 ? -15.4°
